Погода в Елеце

Погода в Елеце : погода сейчас, прогноз погоды и архив. Всё, что Вы хотите узнать о погоде в Елеце!

Хотите узнать прогноз погоды в Елеце? Тогда Вам сюда: Погода в Елеце

Поиск расширенной информации на нашем сайте:

Другие новости

Новости СМИ2

Главная страница сайта

Новости сайта

02.10.2013

Напоминаем, что на нашем новом сайте вы можете получить высокодетализированные прогнозы погоды по пунктам России, СНГ и мира (включающие важные для авиации метеовеличины, такие как направление и скорость ветра, видимость, явления погоды, количество и форма облачности, нижняя и верхняя граница облачности), а также ознакомиться с разнообразными материалами по авиационной метеорологии и подборкой полезных ссылок на эту тему.

Сайт Метеоцентр.Азия посвящён разработке технологий оптимизации авиаметеорологического обслуживания, включая проектирование и перспективное создание нескольких автоматизированных авиаметеорологических систем:
- система выпуска высокодетальных прогностических карт явлений погоды для нижнего воздушного пространства по России и ближнему зарубежью;
- система верификации прогнозов TAF (выпускаемых синоптиками официальных АМСГ РФ и ближнего зарубежья) и AUTOTAF (выпускаемых сайтом Метеоцентр.Азия) - выявление ошибок, онлайн-сопоставление с фактической погодой METAR, автоматическое внесение коррективов в прогнозы при резком отклонении фактической погоды от прогноза, подсчёт оправдываемости прогнозов по элементам и в целом;
- система обработки, анализа и отображения авиаметеорологической информации для применения провайдерами метеорологической информации.

Рекомендуем: Гусь хрустальный люстры магазин.

Погода в Елеце - сегодня

Время (UTC), дата Ветер
(°,м/с) 
Видим.   Явления Облачность Т
(°С)
Тd
(°С)
f(%) Тe
(°С)
Pmin
(гПа)
dP
(гПа)
Po
(мм)
O2
(г/м3)
Тmin Tmax R s Состояние
почвы
00 24.03.17 190 (Ю) 4000 м  дымка  3/0 верхняя 
[Ci fib]
-0.3 -0.9 96 1025.7  0.1  753  304           
03 24.03.17 190 (Ю) 4000 м  дымка  4/0 верхняя 
[Ci fib]
-1.4 -1.7 98 -1  1025.6  -0.1  753  305  -1.5         
06 24.03.17 200 (Ю) 4000 м  дымка  9/0 средняя 
[Ac trans]
+3.7 -0.9 72 +5  1024.4  -0.9  753  299           
09 24.03.17 160 (Ю) 10 км    9/3 600 м средняя 
[Sc|Ac und]
+7.5 +1.1 64 +7  1021.8  -2.2  751  294           
12 24.03.17 150 (ЮВ) 10 км  слаб. дождь  10/8 600 м средняя 
[Sc|Ac und]
+7.6 +0.2 59 +8  1017  -4.7  747  293           
15 24.03.17 070 (В) 4000 м  слаб. дождь  10/10 300 м 
[Frnb|Ns]
+5 +4.3 95 +6  1013.1  -4.1  744  294    +8.1     
18 24.03.17 320 (СЗ) 1000 м  слаб. дождь  10/10 200 м 
[Frnb|Ns]
+4.7 +4.5 99 +6  1011.2  -1.8  743  294           
21 24.03.17 330 (СЗ) 4000 м  дымка{дождь}  10/10 300 м 
[St]
+2.7 +2.2 96 +1  1012.4  1.1  744  296           
00 25.03.17 350 (С) 6-11{11}  4000 м  дымка{дождь}  10/10 300 м 
[St]
+2.3 +0.4 87 -1  1013.3  0.6  744  297           
03 25.03.17 310 (СЗ) 3{11}  10 км    ясно 
+0.1 -2 86 -2  1014.6  1.2  745  300  +0.1       
06 25.03.17 330 (СЗ) 10 км    4/0 средняя 
[Ac trans]
+1.2 -3.3 72 -1  1015.5  746  300  +0         
09 25.03.17 340 (С) 4{10}  20000 м    8/8 1000 м 
[Cu med, cong]
+2.6 -8.7 43 +1  1015.7  0.2  746  299           
12 25.03.17 340 (С) 4{11}  20000 м    8/8 1000 м 
[Cu med, cong]
+3.8 -7.6 43 +2  1015.1  -0.4  746  297           
15 25.03.17 340 (С) 20000 м    8/8 1000 м 
[Cu med, cong]
+3.6 -6.1 49 +2  1015.3  0.2  746  297    +4.7       
18 25.03.17 200 (Ю) 10 км    3/0 верхняя 
[Ci fib]
-0.3 -4.8 72 1015.7  0.1  746  301           
21 25.03.17 200 (Ю) 10 км    ясно 
-1.1 -5.4 73 -2  1015.6  -0.1  746  302           
00 26.03.17 210 (ЮЗ) 10 км    ясно 
-2.3 -5.5 79 -2  1016.3  0.5  746  304           
03 26.03.17 210 (ЮЗ) 4000 м  дымка  9/0 средняя, верхняя 
[Ac trans|Ci sp]
-3.1 -4.8 88 -3  1016.6  0.3  747  305  -3.3         
06 26.03.17 тихо ()   4000 м  дымка  9/0 средняя, верхняя 
[Ac lent|Cs]
-0.4 -4.1 76 -0  1017.4  747  302           
09 26.03.17 280 (З) 10 км    8/5 600 м верхняя 
[Sc|Ci sp]
+6.1 -8.8 33 +7  1017.9  0.8  748  296           
12 26.03.17 350 (С) 10 км    8/8 600 м 
[Cu med, cong]
+6.2 -8.6 34 +5  1016.4  -1.4  747  295           
15 26.03.17 300 (СЗ) 10 км    8/4 600 м средняя, верхняя 
[Sc diur, vesp|Ac cuf|Ci fib]
+6.2 -8.6 34 +6  1015.2  -1.2  746  295    +8.1       
18 26.03.17 210 (ЮЗ) 10 км    ясно 
+1.4 -3.1 72 +1  1014.1  -1.4  745  299           
21 26.03.17 220 (ЮЗ) 10 км    4/0 верхняя 
[Ci fib]
+0 -3.4 78 -1  1012  -2.1  743  300           
00 27.03.17 230 (ЮЗ) 10 км    9/0 средняя 
[Ac und]
+0.4 -2.9 78 -1  1006.9  -5  740  298           
Время (UTC), дата Ветер
(°,м/с) 
Видим.   Явления Облачность Т
(°С)
Тd
(°С)
f(%) Тe
(°С)
Pmin
(гПа)
dP
(гПа)
Po
(мм)
O2
(г/м3)
Тmin Tmax R s Состояние
почвы

Для получения пояснительной информации подведите курсор к названию столбца.

ПОГОДА в Елеце - архив

Всё, что Вы хотите узнать о погоде в Елеце - удобно и подробно!

Выберите нужную дату (начиная с 1 января 2015* года) и нажмите кнопку "Найти".
Будут отображены архивные сводки погоды по пункту Елец, начиная с указанной даты.


Отображать данные в формате CSV (для использования в таблицах Excel)


Внимание! Наш архив погоды предназначен исключительно для личного некоммерческого использования в познавательных целях. Если Вам необходимы официальные справки о состоянии погоды (для производственных, юридических, коммерческих и т.п. целей), обращайтесь в органы Росгидромета.

*Примечание: данная дата относится к архиву по метеостанциям СССР (Россия, СНГ, Балтия).
Архив по метеостанциям Зарубежной Европы и Азии (кроме Китая) хранится 10 дней, по другим регионам земного шара (Китай, Африка, Америка, Австралия, Океания) - 1 день.

Елец - район местоположения метеостанции


Название, широта, долгота, высота метеостанции:
Елец 52.6°ш. 38.5°д. 168 м над ур. моря [Российская Федерация]

Дополнительная информация

В oтличие oт бoльшинства пoгoдных сайтoв мы публикуем пoдрoбную метеoинфoрмацию в детальнoм прoфессиoнальнoм фoрмате.

Характеристики температуры и влажнoсти вoздуха измеряются на высoте 2 м в тени вдали oт зданий и деревьев.
Скoрoсть ветра измеряется на высoте 10 м (на урoвне рoста челoвека скoрoсть ветра ниже в 1.5-2 раза). Если метеoстанция нахoдится в гoрoде или в лесу, тo скoрoсть ветра занижена на 2-4 м/с пo сравнению с oткрытым местoм. Скoрoсть ветра над акватoриями крупных рек и oзёр, а также на вершинах хoлмoв на 2-5 м/с выше, чем в oбычных услoвиях.
Атмoсфернoе давление в разных тoчках местнoсти мoжет значительнo oтличаться oт давления на метеoстанции, в зависимoсти oт услoвий рельефа (при пoдъёме на 10 м давление пoнижается примернo на 1 мм рт.ст.).